Time,TemperatureF,DewpointF,PressureIn,WindDirection,WindDirectionDegrees,WindSpeedMPH,WindSpeedGustMPH,Humidity,HourlyPrecipIn,Conditions,Clouds,dailyrainin,SoftwareType,DateUTC
2013-09-15 00:00:00,53.4,47.7,30.05,N/A,-737280,0.0,-999.0,81,0.00,,,0.00,Wunderground v.1.15,2013-09-15 04:00:00,
2013-09-15 00:05:00,53.4,47.7,30.05,N/A,-737280,0.0,-999.0,81,0.00,,,0.00,Wunderground v.1.15,2013-09-15 04:05:00,
2013-09-15 00:10:00,53.3,47.6,30.06,N/A,-737280,0.0,-999.0,81,0.00,,,0.00,Wunderground v.1.15,2013-09-15 04:10:00,
2013-09-15 00:15:00,53.3,47.6,30.06,N/A,-737280,0.0,-999.0,81,0.00,,,0.00,Wunderground v.1.15,2013-09-15 04:15:00,
2013-09-15 00:20:00,53.3,47.6,30.06,N/A,-737280,0.0,-999.0,81,0.00,,,0.00,Wunderground v.1.15,2013-09-15 04:20:00,
2013-09-15 00:25:00,53.2,47.8,30.06,N/A,-737280,0.0,-999.0,82,0.00,,,0.00,Wunderground v.1.15,2013-09-15 04:25:00,
2013-09-15 00:30:00,53.1,47.7,30.06,N/A,-737280,0.0,-999.0,82,0.00,,,0.00,Wunderground v.1.15,2013-09-15 04:30:00,
2013-09-15 00:35:00,52.8,47.5,30.06,N/A,-737280,0.0,-999.0,82,0.00,,,0.00,Wunderground v.1.15,2013-09-15 04:35:00,
2013-09-15 00:40:00,52.6,47.6,30.06,N/A,-737280,0.0,-999.0,83,0.00,,,0.00,Wunderground v.1.15,2013-09-15 04:40:00,
2013-09-15 00:45:00,52.4,47.4,30.06,N/A,-737280,0.0,-999.0,83,0.00,,,0.00,Wunderground v.1.15,2013-09-15 04:45:00,
2013-09-15 00:50:00,52.4,47.7,30.05,N/A,-737280,0.0,-999.0,84,0.00,,,0.00,Wunderground v.1.15,2013-09-15 04:50:00,
2013-09-15 00:55:00,52.4,47.7,30.05,N/A,-737280,0.0,-999.0,84,0.00,,,0.00,Wunderground v.1.15,2013-09-15 04:55:00,
2013-09-15 01:00:00,52.3,47.6,30.05,N/A,-737280,0.0,-999.0,84,0.00,,,0.00,Wunderground v.1.15,2013-09-15 05:00:00,
2013-09-15 01:05:00,52.2,47.5,30.05,N/A,-737280,0.0,-999.0,84,0.00,,,0.00,Wunderground v.1.15,2013-09-15 05:05:00,
2013-09-15 01:10:00,52.2,47.5,30.05,N/A,-737280,0.0,-999.0,84,0.00,,,0.00,Wunderground v.1.15,2013-09-15 05:10:00,
2013-09-15 01:15:00,52.2,47.5,30.05,N/A,-737280,0.0,-999.0,84,0.00,,,0.00,Wunderground v.1.15,2013-09-15 05:15:00,
2013-09-15 01:20:00,52.3,47.6,30.05,N/A,-737280,0.0,-999.0,84,0.00,,,0.00,Wunderground v.1.15,2013-09-15 05:20:00,
2013-09-15 01:25:00,52.4,47.7,30.05,N/A,-737280,0.0,-999.0,84,0.00,,,0.00,Wunderground v.1.15,2013-09-15 05:25:00,
2013-09-15 01:30:00,52.4,47.7,30.05,N/A,-737280,0.0,-999.0,84,0.00,,,0.00,Wunderground v.1.15,2013-09-15 05:30:00,
2013-09-15 01:35:00,52.4,47.7,30.05,N/A,-737280,0.0,-999.0,84,0.00,,,0.00,Wunderground v.1.15,2013-09-15 05:35:00,
2013-09-15 01:40:00,52.3,47.6,30.05,N/A,-737280,0.0,-999.0,84,0.00,,,0.00,Wunderground v.1.15,2013-09-15 05:40:00,
2013-09-15 01:45:00,52.0,47.3,30.04,N/A,-737280,0.0,-999.0,84,0.00,,,0.00,Wunderground v.1.15,2013-09-15 05:45:00,
2013-09-15 01:50:00,51.8,47.4,30.04,N/A,-737280,0.0,-999.0,85,0.00,,,0.00,Wunderground v.1.15,2013-09-15 05:50:00,
2013-09-15 01:55:00,51.6,47.2,30.04,N/A,-737280,0.0,-999.0,85,0.00,,,0.00,Wunderground v.1.15,2013-09-15 05:55:00,
2013-09-15 02:00:00,51.5,47.1,30.04,N/A,-737280,0.0,-999.0,85,0.00,,,0.00,Wunderground v.1.15,2013-09-15 06:00:00,
2013-09-15 02:05:00,51.5,47.5,30.04,N/A,-737280,0.0,-999.0,86,0.00,,,0.00,Wunderground v.1.15,2013-09-15 06:05:00,
2013-09-15 02:10:00,51.8,47.4,30.04,N/A,-737280,0.0,-999.0,85,0.00,,,0.00,Wunderground v.1.15,2013-09-15 06:10:00,
2013-09-15 02:15:00,51.9,47.5,30.04,N/A,-737280,0.0,-999.0,85,0.00,,,0.00,Wunderground v.1.15,2013-09-15 06:15:00,
2013-09-15 02:20:00,52.1,47.4,30.04,N/A,-737280,0.0,-999.0,84,0.00,,,0.00,Wunderground v.1.15,2013-09-15 06:20:00,
2013-09-15 02:25:00,52.3,47.3,30.04,N/A,-737280,0.0,-999.0,83,0.00,,,0.00,Wunderground v.1.15,2013-09-15 06:25:00,
2013-09-15 02:30:00,52.4,47.4,30.04,N/A,-737280,0.0,-999.0,83,0.00,,,0.00,Wunderground v.1.15,2013-09-15 06:30:00,
2013-09-15 02:35:00,52.3,47.6,30.04,N/A,-737280,0.0,-999.0,84,0.00,,,0.00,Wunderground v.1.15,2013-09-15 06:35:00,
2013-09-15 02:40:00,52.4,47.4,30.04,N/A,-737280,0.0,-999.0,83,0.00,,,0.00,Wunderground v.1.15,2013-09-15 06:40:00,
2013-09-15 02:45:00,52.5,47.5,30.04,N/A,-737280,0.0,-999.0,83,0.00,,,0.00,Wunderground v.1.15,2013-09-15 06:45:00,
2013-09-15 02:50:00,52.6,47.6,30.04,N/A,-737280,0.0,-999.0,83,0.00,,,0.00,Wunderground v.1.15,2013-09-15 06:50:00,
2013-09-15 02:55:00,52.7,47.7,30.04,N/A,-737280,0.0,-999.0,83,0.00,,,0.00,Wunderground v.1.15,2013-09-15 06:55:00,
2013-09-15 03:00:00,52.6,47.6,30.04,N/A,-737280,0.0,-999.0,83,0.00,,,0.00,Wunderground v.1.15,2013-09-15 07:00:00,
2013-09-15 03:05:00,52.5,47.2,30.04,N/A,-737280,0.0,-999.0,82,0.00,,,0.00,Wunderground v.1.15,2013-09-15 07:05:00,
2013-09-15 03:10:00,52.4,47.1,30.03,N/A,-737280,0.0,-999.0,82,0.00,,,0.00,Wunderground v.1.15,2013-09-15 07:10:00,
2013-09-15 03:15:00,52.4,47.1,30.04,N/A,-737280,0.0,-999.0,82,0.00,,,0.00,Wunderground v.1.15,2013-09-15 07:15:00,
2013-09-15 03:20:00,52.5,47.2,30.04,N/A,-737280,0.0,-999.0,82,0.00,,,0.00,Wunderground v.1.15,2013-09-15 07:20:00,
2013-09-15 03:25:00,52.4,46.7,30.04,N/A,-737280,0.0,-999.0,81,0.00,,,0.00,Wunderground v.1.15,2013-09-15 07:25:00,
2013-09-15 03:30:00,52.5,46.8,30.04,N/A,-737280,0.0,-999.0,81,0.00,,,0.00,Wunderground v.1.15,2013-09-15 07:30:00,
2013-09-15 03:35:00,52.5,46.8,30.04,N/A,-737280,0.0,-999.0,81,0.00,,,0.00,Wunderground v.1.15,2013-09-15 07:35:00,
2013-09-15 03:40:00,52.4,46.7,30.04,N/A,-737280,0.0,-999.0,81,0.00,,,0.00,Wunderground v.1.15,2013-09-15 07:40:00,
2013-09-15 03:45:00,52.5,46.5,30.04,N/A,-737280,0.0,-999.0,80,0.00,,,0.00,Wunderground v.1.15,2013-09-15 07:45:00,
2013-09-15 03:50:00,52.7,46.4,30.04,N/A,-737280,0.0,-999.0,79,0.00,,,0.00,Wunderground v.1.15,2013-09-15 07:50:00,
2013-09-15 03:55:00,52.9,46.2,30.04,N/A,-737280,0.0,-999.0,78,0.00,,,0.00,Wunderground v.1.15,2013-09-15 07:55:00,
2013-09-15 04:00:00,53.3,45.9,30.04,N/A,-737280,0.0,-999.0,76,0.00,,,0.00,Wunderground v.1.15,2013-09-15 08:00:00,
2013-09-15 04:05:00,53.6,46.2,30.03,N/A,-737280,0.0,-999.0,76,0.00,,,0.00,Wunderground v.1.15,2013-09-15 08:05:00,
2013-09-15 04:10:00,53.6,46.2,30.03,N/A,-737280,0.0,-999.0,76,0.00,,,0.00,Wunderground v.1.15,2013-09-15 08:10:00,
2013-09-15 04:15:00,53.6,45.9,30.04,N/A,-737280,0.0,-999.0,75,0.00,,,0.00,Wunderground v.1.15,2013-09-15 08:15:00,
2013-09-15 04:20:00,53.7,46.0,30.04,N/A,-737280,0.0,-999.0,75,0.00,,,0.00,Wunderground v.1.15,2013-09-15 08:20:00,
2013-09-15 04:25:00,53.8,45.7,30.04,N/A,-737280,0.0,-999.0,74,0.00,,,0.00,Wunderground v.1.15,2013-09-15 08:25:00,
2013-09-15 04:30:00,54.0,45.5,30.04,N/A,-737280,0.0,-999.0,73,0.00,,,0.00,Wunderground v.1.15,2013-09-15 08:30:00,
2013-09-15 04:35:00,54.2,45.4,30.04,N/A,-737280,0.0,-999.0,72,0.00,,,0.00,Wunderground v.1.15,2013-09-15 08:35:00,
2013-09-15 04:40:00,54.4,45.6,30.05,N/A,-737280,0.0,-999.0,72,0.00,,,0.00,Wunderground v.1.15,2013-09-15 08:40:00,
2013-09-15 04:45:00,54.4,45.2,30.05,N/A,-737280,0.0,-999.0,71,0.00,,,0.00,Wunderground v.1.15,2013-09-15 08:45:00,
2013-09-15 04:50:00,54.5,44.9,30.05,N/A,-737280,0.0,-999.0,70,0.00,,,0.00,Wunderground v.1.15,2013-09-15 08:50:00,
2013-09-15 04:55:00,54.7,45.1,30.05,N/A,-737280,0.0,-999.0,70,0.00,,,0.00,Wunderground v.1.15,2013-09-15 08:55:00,
2013-09-15 05:00:00,54.8,45.2,30.05,N/A,-737280,0.0,-999.0,70,0.00,,,0.00,Wunderground v.1.15,2013-09-15 09:00:00,
2013-09-15 05:05:00,54.9,45.3,30.05,N/A,-737280,0.0,-999.0,70,0.00,,,0.00,Wunderground v.1.15,2013-09-15 09:05:00,
2013-09-15 05:10:00,55.0,45.0,30.05,N/A,-737280,0.0,-999.0,69,0.00,,,0.00,Wunderground v.1.15,2013-09-15 09:10:00,
2013-09-15 05:15:00,55.1,45.1,30.05,N/A,-737280,0.0,-999.0,69,0.00,,,0.00,Wunderground v.1.15,2013-09-15 09:15:00,
2013-09-15 05:20:00,55.2,44.8,30.05,N/A,-737280,0.0,-999.0,68,0.00,,,0.00,Wunderground v.1.15,2013-09-15 09:20:00,
2013-09-15 05:25:00,55.2,44.8,30.05,N/A,-737280,0.0,-999.0,68,0.00,,,0.00,Wunderground v.1.15,2013-09-15 09:25:00,
2013-09-15 05:30:00,55.3,44.9,30.05,N/A,-737280,0.0,-999.0,68,0.00,,,0.00,Wunderground v.1.15,2013-09-15 09:30:00,
2013-09-15 05:35:00,55.3,45.3,30.05,N/A,-737280,0.0,-999.0,69,0.00,,,0.00,Wunderground v.1.15,2013-09-15 09:35:00,
2013-09-15 05:40:00,54.9,45.3,30.05,N/A,-737280,0.0,-999.0,70,0.00,,,0.00,Wunderground v.1.15,2013-09-15 09:40:00,
2013-09-15 05:45:00,54.3,44.7,30.05,N/A,-737280,0.0,-999.0,70,0.00,,,0.00,Wunderground v.1.15,2013-09-15 09:45:00,
2013-09-15 05:50:00,54.0,44.4,30.05,N/A,-737280,0.0,-999.0,70,0.00,,,0.00,Wunderground v.1.15,2013-09-15 09:50:00,
2013-09-15 05:55:00,53.8,44.6,30.05,N/A,-737280,0.0,-999.0,71,0.00,,,0.00,Wunderground v.1.15,2013-09-15 09:55:00,
2013-09-15 06:00:00,53.9,44.3,30.05,N/A,-737280,0.0,-999.0,70,0.00,,,0.00,Wunderground v.1.15,2013-09-15 10:00:00,
2013-09-15 06:45:00,53.9,45.1,30.06,North,32767,-999.0,0.0,72,0.00,,,0.00,Wunderground v.1.15,2013-09-15 10:45:00,
2013-09-15 07:05:00,54.1,44.9,30.06,North,32767,-999.0,0.0,71,0.00,,,0.00,Wunderground v.1.15,2013-09-15 11:05:00,
2013-09-15 07:10:00,54.3,44.7,30.06,North,32767,-999.0,0.0,70,0.00,,,0.00,Wunderground v.1.15,2013-09-15 11:10:00,
2013-09-15 07:20:00,54.3,45.1,30.06,North,32767,-999.0,0.0,71,0.00,,,0.00,Wunderground v.1.15,2013-09-15 11:20:00,
2013-09-15 07:25:00,54.2,45.4,30.05,North,32767,-999.0,0.0,72,0.00,,,0.00,Wunderground v.1.15,2013-09-15 11:25:00,
2013-09-15 07:35:00,54.1,45.6,30.05,North,32767,-999.0,0.0,73,0.00,,,0.00,Wunderground v.1.15,2013-09-15 11:35:00,
2013-09-15 07:45:00,54.0,45.9,30.04,North,32767,-999.0,0.0,74,0.00,,,0.00,Wunderground v.1.15,2013-09-15 11:45:00,
2013-09-15 07:50:00,53.9,45.8,30.04,North,32767,-999.0,0.0,74,0.00,,,0.00,Wunderground v.1.15,2013-09-15 11:50:00,
2013-09-15 07:55:00,53.9,45.8,30.04,North,32767,-999.0,0.0,74,0.00,,,0.00,Wunderground v.1.15,2013-09-15 11:55:00,
2013-09-15 08:05:00,54.1,46.3,30.03,North,32767,-999.0,0.0,75,0.00,,,0.00,Wunderground v.1.15,2013-09-15 12:05:00,
2013-09-15 08:15:00,54.0,46.6,30.04,North,32767,-999.0,0.0,76,0.00,,,0.00,Wunderground v.1.15,2013-09-15 12:15:00,
2013-09-15 08:20:00,54.0,47.0,30.04,North,32767,-999.0,0.0,77,0.00,,,0.00,Wunderground v.1.15,2013-09-15 12:20:00,
2013-09-15 08:30:00,54.0,47.3,30.03,North,32767,-999.0,0.0,78,0.00,,,0.00,Wunderground v.1.15,2013-09-15 12:30:00,
2013-09-15 08:35:00,53.8,47.4,30.03,North,32767,-999.0,0.0,79,0.00,,,0.00,Wunderground v.1.15,2013-09-15 12:35:00,
2013-09-15 08:45:00,54.0,48.0,30.03,North,32767,-999.0,0.0,80,0.00,,,0.00,Wunderground v.1.15,2013-09-15 12:45:00,
2013-09-15 08:55:00,54.3,48.6,30.03,North,32767,-999.0,0.0,81,0.00,,,0.00,Wunderground v.1.15,2013-09-15 12:55:00,
2013-09-15 09:00:00,54.5,48.5,30.03,North,32767,-999.0,0.0,80,0.00,,,0.00,Wunderground v.1.15,2013-09-15 13:00:00,
2013-09-15 09:05:00,54.7,48.6,30.03,North,32767,-999.0,0.0,80,0.00,,,0.00,Wunderground v.1.15,2013-09-15 13:05:00,
2013-09-15 09:15:00,55.0,48.9,30.03,North,32767,-999.0,0.0,80,0.00,,,0.00,Wunderground v.1.15,2013-09-15 13:15:00,
2013-09-15 09:25:00,55.2,49.5,30.03,North,32767,-999.0,0.0,81,0.00,,,0.00,Wunderground v.1.15,2013-09-15 13:25:00,
2013-09-15 09:35:00,55.3,49.9,30.04,South,186,8.0,8.0,82,0.00,,,0.00,Wunderground v.1.15,2013-09-15 13:35:00,
2013-09-15 09:45:00,55.6,50.5,30.03,South,182,6.0,7.0,83,0.00,,,0.00,Wunderground v.1.15,2013-09-15 13:45:00,
2013-09-15 09:50:00,55.7,50.3,30.04,South,183,7.0,8.0,82,0.00,,,0.00,Wunderground v.1.15,2013-09-15 13:50:00,
2013-09-15 10:00:00,56.0,50.3,30.04,SSW,198,8.0,8.0,81,0.00,,,0.00,Wunderground v.1.15,2013-09-15 14:00:00,
2013-09-15 10:05:00,56.1,50.3,30.04,SSW,202,8.0,8.0,81,0.00,,,0.00,Wunderground v.1.15,2013-09-15 14:05:00,
2013-09-15 10:15:00,56.3,50.9,30.04,SSW,197,8.0,10.0,82,0.00,,,0.00,Wunderground v.1.15,2013-09-15 14:15:00,
2013-09-15 10:25:00,56.6,51.2,30.04,South,186,8.0,8.0,82,0.00,,,0.00,Wunderground v.1.15,2013-09-15 14:25:00,
2013-09-15 10:35:00,56.9,51.8,30.04,SSW,198,7.0,8.0,83,0.00,,,0.00,Wunderground v.1.15,2013-09-15 14:35:00,
2013-09-15 10:40:00,57.2,51.8,30.05,SSW,198,8.0,9.0,82,0.00,,,0.00,Wunderground v.1.15,2013-09-15 14:40:00,
2013-09-15 10:45:00,57.2,51.1,30.05,SSW,203,8.0,9.0,80,0.00,,,0.00,Wunderground v.1.15,2013-09-15 14:45:00,
2013-09-15 10:55:00,57.4,51.9,30.05,SSW,196,10.0,13.0,82,0.00,,,0.00,Wunderground v.1.15,2013-09-15 14:55:00,
2013-09-15 11:05:00,57.3,52.2,30.05,SSW,193,9.0,12.0,83,0.00,,,0.00,Wunderground v.1.15,2013-09-15 15:05:00,
2013-09-15 11:15:00,57.4,52.3,30.04,SSW,194,9.0,11.0,83,0.00,,,0.00,Wunderground v.1.15,2013-09-15 15:15:00,
2013-09-15 11:25:00,57.5,52.4,30.05,SSW,196,8.0,9.0,83,0.00,,,0.00,Wunderground v.1.15,2013-09-15 15:25:00,
2013-09-15 11:35:00,57.6,52.8,30.05,SSW,203,9.0,9.0,84,0.00,,,0.00,Wunderground v.1.15,2013-09-15 15:35:00,
2013-09-15 11:40:00,57.6,52.8,30.05,SSW,211,8.0,8.0,84,0.00,,,0.00,Wunderground v.1.15,2013-09-15 15:40:00,
2013-09-15 13:45:00,57.6,55.0,30.05,SSW,197,5.0,15.0,91,0.00,,,0.02,Wunderground v.1.15,2013-09-15 17:45:00,